UAL1125 KDEN-KBOI

Flight info

Callsign UAL1125
Flight time N/A
Altitude 36000
Route ZIMMR4 CHNGY REAPS KOURT4
Aircraft B738/M-SABDFGRVYL/LB2

Departure

Time 2026-05-07 20:23
Airport Denver International Airport (KDEN)

Arrival

Time N/A
Airport Boise Air Terminal/Gowen Field (KBOI)
Time Latitude Longitude Altitude Speed Heading
2026-05-07 19:34 39.85938 -104.67507 5388 ft 0 kts 180°
2026-05-07 20:10 39.85941 -104.67507 5387 ft 2 kts 180°
2026-05-07 20:11 39.85956 -104.67507 5387 ft 2 kts 179°
2026-05-07 20:11 39.85971 -104.67507 5386 ft 2 kts 180°
2026-05-07 20:11 39.85986 -104.67507 5385 ft 2 kts 191°
2026-05-07 20:11 39.86000 -104.67499 5385 ft 2 kts 223°
2026-05-07 20:12 39.86009 -104.67482 5386 ft 2 kts 251°
2026-05-07 20:12 39.86011 -104.67470 5386 ft 1 kts 269°
2026-05-07 20:12 39.86011 -104.67461 5387 ft 0 kts 270°
2026-05-07 20:14 39.86011 -104.67463 5387 ft 1 kts 270°
2026-05-07 20:14 39.86011 -104.67491 5385 ft 5 kts 269°
2026-05-07 20:15 39.86010 -104.67559 5381 ft 9 kts 268°
2026-05-07 20:15 39.86011 -104.67664 5375 ft 13 kts 270°
2026-05-07 20:15 39.86012 -104.67758 5370 ft 10 kts 270°
2026-05-07 20:15 39.86013 -104.67847 5365 ft 5 kts 271°
2026-05-07 20:16 39.86013 -104.67909 5361 ft 10 kts 270°
2026-05-07 20:16 39.86013 -104.68027 5352 ft 16 kts 270°
2026-05-07 20:16 39.86014 -104.68120 5347 ft 10 kts 270°
2026-05-07 20:16 39.86025 -104.68214 5341 ft 11 kts 286°
2026-05-07 20:17 39.86031 -104.68316 5335 ft 10 kts 270°
2026-05-07 20:17 39.86031 -104.68417 5329 ft 11 kts 270°
2026-05-07 20:17 39.86067 -104.68509 5323 ft 14 kts 351°
2026-05-07 20:17 39.86137 -104.68510 5320 ft 8 kts
2026-05-07 20:18 39.86204 -104.68510 5319 ft 12 kts
2026-05-07 20:18 39.86297 -104.68508 5319 ft 12 kts
2026-05-07 20:18 39.86372 -104.68507 5320 ft 9 kts 359°
2026-05-07 20:18 39.86415 -104.68516 5320 ft 5 kts 321°
2026-05-07 20:19 39.86427 -104.68560 5319 ft 0 kts 271°
2026-05-07 20:21 39.86427 -104.68586 5318 ft 11 kts 271°
2026-05-07 20:22 39.86452 -104.68711 5313 ft 14 kts 332°
2026-05-07 20:22 39.86655 -104.68722 5322 ft 58 kts
2026-05-07 20:22 39.87286 -104.68713 5341 ft 120 kts
2026-05-07 20:22 39.88331 -104.68699 5351 ft 173 kts 358°
2026-05-07 20:23 39.89587 -104.68574 5790 ft 183 kts 355°
2026-05-07 20:23 39.90828 -104.68678 6420 ft 177 kts 336°
2026-05-07 20:23 39.91865 -104.69454 6938 ft 174 kts 310°
2026-05-07 20:23 39.92641 -104.70702 7284 ft 183 kts 295°
2026-05-07 20:24 39.93124 -104.72265 7681 ft 190 kts 277°
2026-05-07 20:24 39.93164 -104.74040 8023 ft 203 kts 267°
2026-05-07 20:24 39.93129 -104.75921 8424 ft 215 kts 269°
2026-05-07 20:24 39.93138 -104.77972 8674 ft 236 kts 271°
2026-05-07 20:25 39.93159 -104.80142 9093 ft 248 kts 271°
2026-05-07 20:25 39.93174 -104.82446 9583 ft 256 kts 270°
2026-05-07 20:25 39.93187 -104.84781 9936 ft 259 kts 270°
2026-05-07 20:25 39.93204 -104.87124 9952 ft 257 kts 270°
2026-05-07 20:26 39.93221 -104.89447 9949 ft 254 kts 269°
2026-05-07 20:26 39.93244 -104.91755 9974 ft 259 kts 270°
2026-05-07 20:26 39.93300 -104.94156 10461 ft 265 kts 271°
2026-05-07 20:26 39.93366 -104.96513 11186 ft 262 kts 271°
2026-05-07 20:27 39.93424 -104.98857 11809 ft 262 kts 271°
2026-05-07 20:27 39.93481 -105.01235 12395 ft 266 kts 271°
2026-05-07 20:27 39.93535 -105.03663 12970 ft 271 kts 272°
2026-05-07 20:27 39.93593 -105.06128 13638 ft 273 kts 272°
2026-05-07 20:28 39.93648 -105.08590 14281 ft 277 kts 272°
2026-05-07 20:28 39.93706 -105.11113 14980 ft 282 kts 272°
2026-05-07 20:28 39.93763 -105.13702 15671 ft 287 kts 272°
2026-05-07 20:28 39.93821 -105.16307 16332 ft 293 kts 272°
2026-05-07 20:29 39.93879 -105.18957 16958 ft 298 kts 272°
2026-05-07 20:29 39.93937 -105.21676 17638 ft 296 kts 273°
2026-05-07 20:29 39.94046 -105.24290 18487 ft 290 kts 277°
2026-05-07 20:29 39.94247 -105.26853 19363 ft 283 kts 279°
2026-05-07 20:30 39.94469 -105.29353 20286 ft 277 kts 280°
2026-05-07 20:30 39.94682 -105.31827 20938 ft 278 kts 280°
2026-05-07 20:30 39.94893 -105.34365 21391 ft 285 kts 280°
2026-05-07 20:30 39.95099 -105.36907 21958 ft 287 kts 280°
2026-05-07 20:31 39.95305 -105.39510 22459 ft 291 kts 280°
2026-05-07 20:31 39.95512 -105.42130 22985 ft 294 kts 280°
2026-05-07 20:31 39.95721 -105.44777 23531 ft 296 kts 280°
2026-05-07 20:31 39.95929 -105.47424 24104 ft 297 kts 279°
2026-05-07 20:32 39.96139 -105.50104 24640 ft 299 kts 280°
2026-05-07 20:32 39.96351 -105.52811 25155 ft 301 kts 280°
2026-05-07 20:32 39.96563 -105.55504 25696 ft 301 kts 280°
2026-05-07 20:32 39.96773 -105.58189 26203 ft 302 kts 280°
2026-05-07 20:33 39.96983 -105.60934 26652 ft 305 kts 280°
2026-05-07 20:33 39.97191 -105.63664 27079 ft 308 kts 280°
2026-05-07 20:33 39.97402 -105.66458 27582 ft 308 kts 279°
2026-05-07 20:33 39.97574 -105.69203 28018 ft 310 kts 279°
2026-05-07 20:34 39.97717 -105.72045 28434 ft 313 kts 278°
2026-05-07 20:34 39.97846 -105.74846 28870 ft 314 kts 278°
2026-05-07 20:34 39.97980 -105.77702 29198 ft 318 kts 278°
2026-05-07 20:34 39.98123 -105.80585 29628 ft 319 kts 278°
2026-05-07 20:35 39.98268 -105.83466 30027 ft 320 kts 278°
2026-05-07 20:35 39.98416 -105.86385 30284 ft 327 kts 279°
2026-05-07 20:35 39.98567 -105.89374 30419 ft 337 kts 278°
2026-05-07 20:35 39.98720 -105.92446 30583 ft 346 kts 279°
2026-05-07 20:36 39.98879 -105.95615 30669 ft 357 kts 278°
2026-05-07 20:36 39.99043 -105.98912 30788 ft 368 kts 278°
2026-05-07 20:36 39.99205 -106.02259 30903 ft 379 kts 278°
2026-05-07 20:36 39.99369 -106.05753 31005 ft 389 kts 278°
2026-05-07 20:37 39.99532 -106.09327 31079 ft 401 kts 278°
2026-05-07 20:37 39.99699 -106.12990 31268 ft 410 kts 278°
2026-05-07 20:37 39.99869 -106.16721 31666 ft 414 kts 278°
2026-05-07 20:37 40.00037 -106.20470 32138 ft 416 kts 278°
2026-05-07 20:38 40.00199 -106.24186 32863 ft 411 kts 278°
2026-05-07 20:38 40.00370 -106.27917 33456 ft 410 kts 278°
2026-05-07 20:38 40.00539 -106.31567 33943 ft 410 kts 278°
2026-05-07 20:38 40.00705 -106.35287 34536 ft 409 kts 278°
2026-05-07 20:39 40.00868 -106.38936 35047 ft 409 kts 278°
2026-05-07 20:39 40.01122 -106.42635 35734 ft 402 kts 282°
2026-05-07 20:39 40.01624 -106.46198 36246 ft 397 kts 289°
2026-05-07 20:40 40.03802 -106.52732 36288 ft 386 kts 301°
2026-05-07 20:40 40.06572 -106.58744 36292 ft 385 kts 305°
2026-05-07 20:41 40.09457 -106.64658 36288 ft 386 kts 304°
2026-05-07 20:41 40.12309 -106.70627 36279 ft 386 kts 304°
2026-05-07 20:42 40.15092 -106.76562 36268 ft 385 kts 303°
2026-05-07 20:42 40.17877 -106.82558 36271 ft 386 kts 303°
2026-05-07 20:43 40.20646 -106.88545 36285 ft 385 kts 303°
2026-05-07 20:43 40.23395 -106.94507 36289 ft 385 kts 303°
2026-05-07 20:44 40.26162 -107.00521 36297 ft 386 kts 303°
2026-05-07 20:44 40.28921 -107.06530 36276 ft 384 kts 303°
2026-05-07 20:45 40.31672 -107.12530 36270 ft 384 kts 303°
2026-05-07 20:45 40.34412 -107.18512 36250 ft 384 kts 303°
2026-05-07 20:46 40.37157 -107.24524 36242 ft 384 kts 303°
2026-05-07 20:46 40.39898 -107.30549 36196 ft 385 kts 303°
2026-05-07 20:47 40.42623 -107.36546 36184 ft 383 kts 303°
2026-05-07 20:47 40.45327 -107.42508 36172 ft 382 kts 303°
2026-05-07 20:48 40.48054 -107.48519 36158 ft 382 kts 303°
2026-05-07 20:48 40.50763 -107.54510 36150 ft 381 kts 303°
2026-05-07 20:49 40.53462 -107.60486 36150 ft 383 kts 303°
2026-05-07 20:49 40.56178 -107.66520 36167 ft 383 kts 303°
2026-05-07 20:50 40.58875 -107.72520 36193 ft 380 kts 303°
2026-05-07 20:50 40.61542 -107.78469 36195 ft 382 kts 303°
2026-05-07 20:51 40.64246 -107.84508 36192 ft 380 kts 303°
2026-05-07 20:51 40.66929 -107.90514 36175 ft 380 kts 303°
2026-05-07 20:52 40.69613 -107.96525 36174 ft 381 kts 303°
2026-05-07 20:52 40.72276 -108.02499 36166 ft 377 kts 303°
2026-05-07 20:53 40.74938 -108.08490 36168 ft 379 kts 303°
2026-05-07 20:53 40.77583 -108.14460 36167 ft 377 kts 303°
2026-05-07 20:54 40.80225 -108.20436 36176 ft 378 kts 303°
2026-05-07 20:54 40.82853 -108.26393 36178 ft 377 kts 303°
2026-05-07 20:55 40.85477 -108.32352 36176 ft 376 kts 303°
2026-05-07 20:55 40.88126 -108.38364 36182 ft 375 kts 303°
2026-05-07 20:56 40.90722 -108.44271 36187 ft 377 kts 303°
2026-05-07 20:56 40.93364 -108.50302 36187 ft 377 kts 303°
2026-05-07 20:57 40.95972 -108.56261 36179 ft 375 kts 303°
2026-05-07 20:57 40.98582 -108.62238 36195 ft 375 kts 303°
2026-05-07 20:58 41.01168 -108.68176 36201 ft 371 kts 303°
2026-05-07 20:58 41.03754 -108.74124 36212 ft 374 kts 303°
2026-05-07 20:59 41.06343 -108.80087 36214 ft 374 kts 303°
2026-05-07 20:59 41.08922 -108.86040 36216 ft 371 kts 302°
2026-05-07 21:00 41.11491 -108.91984 36206 ft 372 kts 303°
2026-05-07 21:00 41.14045 -108.97899 36212 ft 372 kts 302°
2026-05-07 21:01 41.16622 -109.03879 36223 ft 373 kts 302°
2026-05-07 21:01 41.19179 -109.09834 36215 ft 372 kts 302°
2026-05-07 21:02 41.21745 -109.15822 36222 ft 374 kts 302°
2026-05-07 21:02 41.24319 -109.21842 36227 ft 372 kts 302°
2026-05-07 21:03 41.26864 -109.27807 36239 ft 373 kts 303°
2026-05-07 21:03 41.29425 -109.33815 36230 ft 372 kts 302°
2026-05-07 21:04 41.31981 -109.39825 36222 ft 372 kts 302°
2026-05-07 21:04 41.34521 -109.45810 36221 ft 372 kts 302°
2026-05-07 21:05 41.37082 -109.51850 36220 ft 373 kts 302°
2026-05-07 21:05 41.39617 -109.57848 36223 ft 374 kts 302°
2026-05-07 21:06 41.42174 -109.63906 36218 ft 372 kts 302°
2026-05-07 21:06 41.44705 -109.69923 36207 ft 373 kts 302°
2026-05-07 21:07 41.47239 -109.75951 36196 ft 371 kts 302°
2026-05-07 21:07 41.49758 -109.81950 36204 ft 373 kts 302°
2026-05-07 21:08 41.52292 -109.88001 36200 ft 373 kts 302°
2026-05-07 21:08 41.54807 -109.94025 36199 ft 370 kts 302°
2026-05-07 21:09 41.57314 -110.00043 36198 ft 372 kts 302°
2026-05-07 21:09 41.59812 -110.06041 36199 ft 372 kts 302°
2026-05-07 21:10 41.62329 -110.12099 36191 ft 371 kts 301°
2026-05-07 21:10 41.64818 -110.18102 36198 ft 372 kts 302°
2026-05-07 21:11 41.67318 -110.24149 36200 ft 372 kts 302°
2026-05-07 21:11 41.71050 -110.33199 36200 ft 373 kts 302°
2026-05-07 21:12 41.73546 -110.39272 36194 ft 371 kts 302°
2026-05-07 21:12 41.76033 -110.45328 36196 ft 371 kts 302°
2026-05-07 21:13 41.78506 -110.51360 36206 ft 370 kts 302°
2026-05-07 21:13 41.80977 -110.57407 36206 ft 369 kts 302°
2026-05-07 21:14 41.83451 -110.63466 36217 ft 371 kts 301°
2026-05-07 21:14 41.85925 -110.69539 36196 ft 370 kts 301°
2026-05-07 21:15 41.88361 -110.75532 36197 ft 369 kts 301°
2026-05-07 21:15 41.90828 -110.81616 36189 ft 368 kts 301°
2026-05-07 21:16 41.93265 -110.87635 36195 ft 369 kts 301°
2026-05-07 21:16 41.95733 -110.93740 36198 ft 370 kts 301°
2026-05-07 21:17 41.98177 -110.99806 36190 ft 368 kts 302°
2026-05-07 21:17 42.00596 -111.05823 36180 ft 369 kts 301°
2026-05-07 21:18 42.03043 -111.11914 36174 ft 369 kts 301°
2026-05-07 21:18 42.05476 -111.17994 36164 ft 369 kts 301°
2026-05-07 21:19 42.07914 -111.24092 36158 ft 370 kts 301°
2026-05-07 21:19 42.10351 -111.30199 36150 ft 370 kts 301°
2026-05-07 21:20 42.12770 -111.36272 36155 ft 369 kts 301°
2026-05-07 21:20 42.15193 -111.42370 36159 ft 370 kts 301°
2026-05-07 21:21 42.17612 -111.48465 36165 ft 369 kts 301°
2026-05-07 21:21 42.20023 -111.54557 36161 ft 369 kts 301°
2026-05-07 21:22 42.22440 -111.60673 36149 ft 369 kts 301°
2026-05-07 21:22 42.24860 -111.66824 36138 ft 370 kts 301°
2026-05-07 21:23 42.27255 -111.72915 36141 ft 371 kts 301°
2026-05-07 21:23 42.29676 -111.79090 36126 ft 370 kts 301°
2026-05-07 21:24 42.32064 -111.85197 36131 ft 370 kts 301°
2026-05-07 21:24 42.34468 -111.91359 36129 ft 371 kts 301°
2026-05-07 21:25 42.36876 -111.97530 36122 ft 370 kts 301°
2026-05-07 21:25 42.39281 -112.03715 36134 ft 371 kts 301°
2026-05-07 21:26 42.41666 -112.09868 36127 ft 368 kts 301°
2026-05-07 21:26 42.44058 -112.16046 36131 ft 371 kts 301°
2026-05-07 21:27 42.46436 -112.22199 36117 ft 369 kts 301°
2026-05-07 21:27 42.48824 -112.28386 36113 ft 369 kts 301°
2026-05-07 21:28 42.51180 -112.34507 36121 ft 367 kts 301°
2026-05-07 21:28 42.53557 -112.40696 36125 ft 369 kts 301°
2026-05-07 21:29 42.55925 -112.46881 36118 ft 368 kts 301°
2026-05-07 21:29 42.58284 -112.53053 36123 ft 371 kts 301°
2026-05-07 21:30 42.60650 -112.59259 36114 ft 370 kts 301°
2026-05-07 21:30 42.63022 -112.65488 36103 ft 369 kts 300°
2026-05-07 21:31 42.65382 -112.71701 36101 ft 371 kts 300°
2026-05-07 21:31 42.67739 -112.77924 36086 ft 368 kts 300°
2026-05-07 21:32 42.70089 -112.84141 36078 ft 368 kts 300°
2026-05-07 21:32 42.72421 -112.90317 36074 ft 369 kts 300°
2026-05-07 21:33 42.74777 -112.96569 36065 ft 368 kts 300°
2026-05-07 21:33 42.77097 -113.02749 36056 ft 368 kts 300°
2026-05-07 21:34 42.79427 -113.08957 36062 ft 368 kts 300°
2026-05-07 21:34 42.81761 -113.15196 36072 ft 370 kts 300°
2026-05-07 21:35 42.84078 -113.21403 36072 ft 369 kts 300°
2026-05-07 21:35 42.86402 -113.27644 36070 ft 369 kts 300°
2026-05-07 21:36 42.88737 -113.33935 36070 ft 370 kts 300°
2026-05-07 21:36 42.91058 -113.40192 36066 ft 368 kts 300°
2026-05-07 21:37 42.93380 -113.46468 36064 ft 369 kts 300°
2026-05-07 21:37 42.95698 -113.52750 36064 ft 369 kts 300°
2026-05-07 21:38 42.98005 -113.59013 36062 ft 369 kts 300°
2026-05-07 21:38 43.00312 -113.65291 36055 ft 369 kts 300°
2026-05-07 21:39 43.02618 -113.71581 36055 ft 372 kts 299°
2026-05-07 21:39 43.04917 -113.77866 36072 ft 370 kts 300°
2026-05-07 21:40 43.07231 -113.84202 36070 ft 373 kts 299°
2026-05-07 21:40 43.08009 -113.86337 36073 ft 371 kts 299°